Vertical_Velocity
-1 -0 -1 -0 -0 1 0 -0 0 -0 -0 1 -0 1 0 0 -1 -0 -0 1 0 -1 -1 0 0 1 1 -0 -3 -1 -0 1 2 -2 -1 1 1 1 0 0 -1 -1 -1 -1 -2 -2 -1 -1 -2
0 -1 -2 -0 0 1 -1 -1 0 0 -0 0 -0 1 -0 -0 -1 -0 0 -0 1 -0 -1 -1 -0 -3 -1 1 -1 -1 1 1 -0 -1 1 1 2 1 -2 -2 -1 -2 -0 -1 -1 -2 -2 -1 -0
-0 -0 -1 -1 2 2 -2 -1 0 -1 -0 0 0 1 -0 -1 -1 0 -2 -1 1 0 -1 -0 -0 -1 0 2 -1 -0 2 0 2 2 1 0 -1 -1 -0 -0 -0 -1 -1 -2 -1 -0 -0 -1 -0
0 0 -2 -2 2 1 -0 1 -1 -1 -1 1 0 1 -0 -1 -1 -0 -2 -1 -0 0 -1 0 -3 -0 0 1 1 1 0 2 -0 2 -1 1 1 -0 0 -1 -2 -2 -0 -2 -1 0 -0 0 -0
2 1 -0 -2 1 1 -0 -0 -2 -1 -1 1 -0 -0 0 -2 -0 -1 -2 -1 -1 -1 -3 -0 -2 -1 -0 1 0 2 -1 -3 -2 2 1 -0 1 -0 -0 -1 -1 -1 0 1 0 -1 -1 -1 -0
0 0 -0 1 2 -0 0 -2 -2 -2 -1 0 -0 0 1 -2 0 -2 -1 -1 -1 -1 -2 -0 -3 -1 1 2 -1 -2 -1 -0 -0 0 -2 -2 -1 -2 -1 0 -1 -0 -1 -0 -1 -1 -1 -1 -2
1 -1 0 -1 0 -1 0 -1 -2 -1 -1 -2 1 -0 0 -3 1 -2 -2 1 -2 -1 -2 -2 1 0 -3 -1 -3 -1 -1 -4 -0 0 -1 -2 -3 -2 -3 -0 -0 -1 -0 -0 -0 -1 -0 1 -1
3 -3 0 1 1 -1 1 -1 0 -0 -1 -1 1 -1 -0 -2 1 -0 -2 -0 1 -0 -3 -1 0 -1 -0 -1 -3 -0 0 -1 -2 1 2 2 1 0 -0 -1 -2 -0 0 -1 -1 -2 -2 -1 -2
3 -3 1 1 -2 2 -0 0 -2 -1 0 -0 -0 0 -0 -1 -1 -0 -1 -2 1 2 -3 -1 -1 4 -3 -1 0 1 1 -0 -1 -5 -4 -1 -2 -2 -2 -1 0 -1 0 0 -1 -1 -1 -2 -2
-2 0 -0 -0 3 0 -1 1 -0 -2 -0 0 -2 -2 -2 0 -3 1 -2 -2 1 2 -3 -1 1 3 -1 -1 1 1 1 -2 -1 -2 -2 -2 -1 -1 -0 -0 -1 -1 -2 -1 -1 -1 -1 0 -0
0 3 -0 -1 5 -0 -0 -0 0 -1 0 -0 -2 0 -2 -1 -1 1 -1 0 0 1 -1 -2 -0 3 -1 -1 1 2 -1 2 1 0 -1 -2 -1 -1 -1 -0 -0 -0 -0 -0 -1 -1 -0 -2 -1
-4 -1 -2 4 -0 1 1 0 3 -0 -4 2 -2 0 -1 -3 0 -1 -2 -4 -4 2 1 -2 -3 3 -2 -2 -0 -1 2 1 -0 -2 -1 0 -1 -0 -0 -0 -0 0 0 -1 -1 -0 -1 1 0
-2 9 1 2 1 2 -3 3 0 -0 -2 -0 0 -1 -1 -2 -1 0 1 -0 -1 -0 -1 1 -1 -3 0 -0 -1 2 0 -1 2 1 0 -0 -0 2 2 0 -0 0 -0 1 0 0 1 -0 -2
1 -1 -2 -1 -0 0 -1 -1 2 -1 -0 -0 0 -1 -1 -1 -4 -0 -1 -1 -3 1 -1 -1 1 -1 -2 -1 -1 -2 1 -1 -1 1 2 1 -0 -2 -3 -2 -0 1 0 -0 -0 -0 -1 -1 -1
-3 0 -2 -0 -2 -1 0 -2 7 -1 -0 1 1 1 0 -0 1 -1 -3 -4 -2 -3 1 -1 -2 3 2 -1 -3 -1 -2 -0 -1 -3 -2 -1 -0 0 -0 -1 -1 -1 1 0 -0 -0 0 0 -2
-4 -1 -2 4 3 -3 -6 6 -4 0 -2 -2 1 1 1 0 -0 -1 -3 -3 0 1 -3 -1 -2 -2 1 -0 2 -0 -5 -3 -2 0 -1 -2 -2 -2 -1 -1 2 1 0 -1 -0 0 1 -1 -2
-3 7 7 -5 -6 -1 -4 7 -6 3 -2 1 -2 -1 1 -2 1 1 2 -0 -2 0 -2 0 -1 -2 -6 -1 -1 0 1 -2 -2 -2 -2 0 -1 -0 1 0 -1 0 -0 0 -0 2 -0 -0 -0
10 6 -4 -1 -3 -3 -0 6 -5 5 -0 -3 0 -0 -1 -0 0 0 -2 0 -2 -1 -0 -1 1 0 2 -0 1 -0 -0 -0 -2 -2 -0 -1 -1 -1 -1 -1 -0 -0 -1 1 2 1 0 -1 -2
0 0 -1 2 -2 -3 -1 -3 -2 -2 1 -2 -0 4 -0 2 -2 -1 -1 -1 2 -2 0 1 -2 1 2 1 -1 -1 -3 -4 2 -1 0 -3 0 -1 2 0 1 -2 -1 1 1 1 2 1 0
-4 12 1 -1 0 3 -3 5 -0 1 1 2 -2 -4 1 -1 1 -1 -3 -2 -2 1 -0 -2 0 -1 0 2 2 1 -0 1 -0 1 -0 -2 -1 -0 -0 0 -1 -1 2 -0 0 1 2 3 1
1 -1 2 -1 -2 0 -3 3 -1 1 -4 -1 -1 1 -5 2 1 -0 2 3 -4 -2 0 2 -1 -3 -1 0 -0 -1 1 4 -0 1 -1 -2 2 0 0 1 1 0 1 1 0 1 2 2 -2
2 3 0 -1 -2 -3 -5 2 -5 -3 4 -4 -1 0 -1 1 -1 -1 3 6 5 0 -0 -1 -1 1 -2 -1 1 1 -0 -2 0 -2 -2 -0 0 -2 0 -2 1 -1 1 1 2 1 -0 0 1
-4 5 -0 -10 1 3 -2 -20 21 -8 1 8 5 1 -0 1 3 2 2 4 1 -4 2 -1 -1 -1 -0 2 -1 -0 1 4 0 -1 0 -1 -0 -1 -1 -0 -1 -2 -2 -1 0 0 -2 1 2
0 -4 1 0 -5 -24 -3 -10 26 -1 5 2 9 3 3 3 5 3 1 -1 1 1 3 2 0 1 -2 -2 -0 0 -3 0 0 1 0 0 1 -0 2 3 4 2 -0 -1 -2 1 1 0 -0
-4 4 -1 -7 -10 -17 8 -24 31 1 16 -0 5 2 -2 -1 2 7 -1 -0 3 3 -1 1 -1 4 1 -1 1 1 2 -2 -2 2 -0 1 0 1 -4 -2 -0 2 2 1 0 -2 0 2 2
5 10 1 -8 -7 -4 -5 -33 2 6 -1 0 6 -2 -6 -0 0 8 7 2 -0 2 1 -3 -3 -1 -2 -1 1 -0 0 1 0 2 2 0 -1 -2 3 2 -1 -4 -0 2 4 3 -1 -3 -0
-1 -14 1 -1 -5 -2 -11 -6 -5 2 2 -2 -8 -4 3 -6 -9 3 -1 -4 1 -2 6 1 1 4 2 -0 -0 2 -0 -3 1 1 1 1 2 2 4 3 -1 0 -1 -0 0 5 5 4 1
-4 10 -6 -13 -7 -1 -11 -4 -3 4 -2 0 -1 -13 -8 -5 -9 -7 1 1 -1 1 1 -0 -0 1 -2 -0 0 3 2 1 3 -0 2 1 3 3 2 6 1 2 0 3 4 0 1 2 3
3 3 1 15 -2 -8 -3 -4 3 1 -0 2 -1 -3 -9 -4 -5 -3 -3 -4 -0 1 0 -0 0 -1 -2 1 -1 1 1 -1 -4 -4 1 1 1 2 -0 2 -2 1 -1 -1 1 -0 2 -0 -2
5 -4 -19 -16 -1 0 -1 -19 5 6 6 2 -0 7 -3 -3 -2 -2 -4 1 -6 0 1 3 -1 -0 4 -4 -0 1 1 3 -0 1 -2 -3 1 1 2 5 2 0 2 -1 1 2 -1 0 1
Height
5869 5872 5875 5878 5883 5882 5883 5884 5883 5883 5884 5883 5883 5882 5881 5880 5878 5879 5875 5873 5871 5870 5871 5872 5873 5875 5876 5877 5879 5881 5883 5883 5883 5885 5886 5886 5887 5887 5887 5888 5888 5888 5887 5887 5887 5886 5886 5885 5884
5867 5871 5874 5875 5879 5880 5882 5882 5881 5882 5882 5882 5882 5881 5881 5880 5878 5877 5875 5873 5872 5871 5871 5872 5873 5875 5876 5877 5879 5882 5883 5883 5884 5886 5887 5887 5888 5888 5888 5888 5889 5889 5888 5888 5888 5887 5886 5884 5883
5865 5868 5872 5874 5876 5878 5879 5880 5880 5880 5881 5881 5881 5880 5880 5880 5878 5877 5875 5873 5872 5872 5873 5873 5875 5876 5878 5879 5881 5882 5883 5883 5884 5886 5887 5888 5888 5889 5889 5890 5890 5890 5890 5889 5888 5887 5886 5885 5884
5863 5866 5870 5872 5873 5875 5877 5877 5878 5878 5880 5880 5880 5879 5879 5879 5878 5877 5876 5874 5873 5873 5875 5875 5877 5878 5880 5881 5882 5883 5884 5885 5886 5887 5889 5889 5890 5890 5890 5892 5891 5891 5891 5890 5889 5888 5887 5886 5886
5859 5863 5867 5870 5871 5873 5874 5875 5876 5876 5878 5879 5879 5878 5878 5879 5878 5877 5876 5874 5874 5874 5875 5875 5877 5879 5881 5882 5883 5885 5885 5886 5888 5889 5889 5890 5891 5892 5893 5892 5892 5892 5892 5891 5889 5888 5887 5887 5886
5855 5861 5866 5868 5868 5872 5872 5873 5873 5874 5876 5877 5878 5878 5878 5878 5877 5878 5877 5875 5876 5876 5877 5876 5879 5881 5883 5884 5885 5886 5886 5888 5889 5889 5890 5891 5893 5893 5893 5893 5893 5892 5892 5891 5891 5890 5889 5888 5887
5853 5858 5862 5864 5867 5870 5870 5871 5871 5873 5874 5876 5877 5877 5877 5877 5877 5877 5877 5876 5877 5877 5879 5878 5881 5882 5884 5886 5888 5889 5888 5889 5890 5891 5892 5893 5894 5894 5893 5893 5893 5893 5892 5892 5891 5890 5889 5889 5888
5850 5855 5858 5862 5866 5867 5867 5868 5869 5871 5873 5874 5876 5876 5875 5875 5876 5877 5876 5877 5878 5879 5880 5881 5882 5884 5885 5886 5888 5890 5891 5891 5892 5892 5893 5894 5894 5894 5894 5894 5893 5893 5892 5892 5891 5890 5890 5889 5887
5847 5850 5855 5858 5861 5864 5865 5866 5868 5868 5871 5871 5874 5875 5875 5874 5876 5877 5876 5877 5879 5880 5881 5882 5883 5885 5885 5886 5888 5890 5892 5892 5893 5892 5893 5893 5893 5894 5894 5894 5893 5893 5892 5892 5891 5890 5889 5887 5886
5841 5848 5853 5854 5858 5862 5864 5866 5868 5869 5870 5870 5871 5873 5874 5874 5874 5877 5877 5877 5879 5880 5880 5882 5884 5886 5886 5886 5888 5890 5890 5891 5892 5893 5893 5894 5894 5894 5894 5893 5893 5892 5892 5891 5890 5889 5888 5886 5885
5838 5845 5847 5850 5853 5859 5862 5864 5867 5868 5868 5869 5871 5872 5874 5872 5873 5875 5877 5879 5880 5882 5879 5882 5883 5886 5887 5887 5888 5890 5891 5891 5893 5893 5893 5893 5894 5894 5894 5893 5893 5893 5892 5891 5889 5888 5887 5885 5883
5833 5839 5842 5845 5849 5853 5858 5860 5864 5865 5864 5869 5871 5871 5872 5872 5873 5874 5875 5876 5878 5881 5881 5880 5882 5885 5887 5887 5887 5889 5890 5891 5891 5892 5892 5892 5893 5893 5893 5893 5892 5892 5891 5889 5888 5886 5884 5882 5880
5828 5833 5836 5840 5845 5849 5852 5856 5859 5861 5863 5867 5869 5869 5870 5871 5873 5873 5874 5876 5877 5879 5880 5880 5881 5883 5885 5886 5888 5888 5889 5890 5889 5890 5891 5891 5891 5891 5891 5891 5890 5889 5888 5887 5885 5884 5882 5879 5877
5824 5827 5830 5834 5838 5842 5847 5851 5855 5857 5862 5865 5866 5867 5869 5869 5871 5872 5872 5873 5875 5877 5878 5879 5879 5881 5882 5885 5887 5888 5888 5888 5889 5889 5890 5890 5890 5890 5890 5889 5888 5887 5886 5884 5883 5880 5878 5876 5873
5819 5822 5825 5828 5831 5835 5839 5844 5853 5852 5856 5859 5862 5864 5867 5868 5869 5869 5869 5871 5872 5873 5876 5877 5878 5879 5881 5882 5884 5886 5888 5889 5889 5890 5890 5890 5889 5888 5888 5887 5886 5885 5883 5881 5879 5877 5875 5873 5870
5814 5815 5819 5824 5825 5829 5834 5840 5845 5846 5851 5854 5857 5860 5864 5865 5865 5867 5868 5870 5872 5873 5874 5876 5877 5878 5879 5881 5883 5885 5886 5887 5888 5888 5887 5887 5887 5886 5885 5884 5883 5882 5880 5878 5876 5874 5872 5868 5865
5805 5808 5817 5819 5821 5824 5828 5833 5838 5842 5845 5849 5852 5855 5858 5861 5863 5864 5866 5867 5869 5871 5873 5874 5876 5877 5879 5880 5880 5882 5883 5884 5884 5885 5884 5884 5883 5883 5882 5881 5880 5879 5877 5875 5872 5870 5867 5864 5861
5801 5806 5814 5816 5818 5820 5822 5828 5832 5836 5838 5842 5846 5849 5853 5857 5859 5858 5861 5863 5865 5867 5870 5872 5874 5875 5878 5880 5880 5880 5880 5881 5880 5880 5880 5880 5879 5878 5877 5876 5875 5873 5871 5870 5868 5866 5862 5859 5855
5797 5802 5806 5809 5810 5814 5818 5823 5826 5830 5834 5835 5840 5844 5847 5851 5850 5854 5857 5859 5862 5865 5866 5868 5870 5872 5874 5876 5877 5877 5877 5878 5878 5877 5877 5877 5875 5873 5872 5871 5869 5867 5866 5864 5862 5860 5858 5854 5849
5791 5794 5800 5802 5804 5809 5814 5820 5821 5823 5828 5831 5833 5835 5841 5843 5844 5850 5854 5855 5857 5860 5862 5863 5865 5866 5868 5870 5871 5873 5872 5874 5875 5875 5873 5872 5871 5870 5868 5866 5863 5861 5860 5857 5855 5853 5851 5848 5844
5785 5789 5793 5798 5800 5802 5808 5814 5816 5819 5820 5822 5826 5830 5833 5837 5839 5843 5846 5850 5851 5854 5856 5858 5858 5860 5862 5863 5865 5868 5868 5869 5870 5868 5868 5867 5866 5865 5863 5860 5858 5856 5854 5852 5849 5847 5844 5842 5838
5777 5783 5787 5791 5794 5794 5800 5803 5809 5812 5816 5818 5820 5822 5827 5829 5831 5835 5839 5843 5847 5850 5847 5850 5854 5855 5857 5858 5860 5861 5862 5862 5861 5861 5861 5861 5859 5857 5856 5854 5852 5850 5848 5846 5843 5841 5838 5835 5832
5771 5776 5779 5785 5787 5789 5792 5792 5807 5807 5810 5814 5815 5816 5818 5821 5823 5827 5831 5836 5839 5838 5841 5843 5845 5849 5851 5852 5853 5853 5854 5854 5852 5853 5853 5853 5852 5850 5848 5846 5845 5843 5840 5838 5836 5833 5830 5827 5824
5761 5767 5772 5775 5780 5779 5787 5789 5793 5802 5806 5807 5807 5809 5810 5811 5813 5818 5821 5825 5828 5830 5834 5836 5839 5841 5841 5843 5843 5846 5846 5845 5844 5845 5846 5846 5845 5843 5841 5839 5837 5834 5832 5830 5827 5824 5820 5818 5814
5752 5758 5760 5765 5768 5774 5782 5782 5783 5798 5800 5800 5801 5802 5802 5803 5804 5809 5812 5815 5819 5822 5825 5827 5829 5831 5831 5832 5834 5835 5837 5836 5836 5836 5836 5837 5835 5834 5833 5830 5828 5826 5824 5821 5818 5815 5812 5809 5805
5745 5750 5751 5754 5762 5769 5772 5776 5781 5788 5791 5792 5793 5794 5794 5795 5796 5796 5800 5805 5808 5813 5816 5818 5820 5822 5822 5822 5824 5826 5827 5827 5828 5827 5826 5826 5825 5826 5825 5823 5820 5818 5814 5810 5807 5805 5802 5798 5794
5732 5738 5744 5747 5751 5758 5763 5772 5776 5777 5783 5785 5784 5784 5785 5784 5784 5785 5787 5795 5799 5802 5805 5809 5809 5810 5812 5814 5814 5816 5817 5818 5817 5816 5816 5817 5817 5814 5813 5812 5810 5807 5805 5801 5798 5794 5791 5787 5783
5725 5730 5733 5737 5740 5745 5753 5759 5765 5767 5770 5773 5774 5775 5774 5775 5775 5776 5778 5782 5788 5790 5792 5795 5798 5800 5801 5802 5804 5805 5806 5806 5806 5806 5805 5805 5806 5805 5803 5801 5798 5796 5793 5791 5787 5783 5779 5776 5772
5715 5719 5723 5728 5730 5733 5741 5748 5755 5758 5759 5763 5765 5766 5767 5769 5768 5770 5771 5772 5777 5781 5782 5785 5787 5789 5790 5790 5791 5793 5794 5795 5795 5795 5794 5793 5793 5794 5793 5790 5787 5785 5782 5779 5775 5771 5768 5764 5761
5703 5710 5712 5716 5721 5725 5729 5742 5746 5748 5750 5749 5750 5753 5755 5756 5757 5758 5761 5763 5765 5769 5772 5774 5775 5777 5778 5779 5780 5782 5784 5785 5785 5785 5783 5781 5780 5780 5780 5778 5775 5773 5769 5766 5763 5759 5756 5752 5749